Wind_Speed
15 17 19 21 22 23 24 24 25 25 25 25 24 24 24 23 22 22 22 21 20 20 21 21 20 19 18 18 17 15 13 10 8 9 9 10 10 10 10 11 13 15 17 18 18 18 19 19 18 17 17 17 17 17 17 18 18 19 20 21 21 21 20 20 19 19 19 21 24 26 29 31 33 33 33 33 34 33 32 31 31 31 30 31 32
15 17 19 20 20 21 23 24 25 25 25 25 24 25 25 25 24 24 23 22 22 22 21 21 20 20 19 19 18 17 14 11 10 10 10 10 10 10 10 12 14 16 18 19 20 21 21 21 20 18 18 17 17 17 17 17 19 20 21 22 22 21 21 21 20 20 21 22 25 28 32 34 36 36 36 36 36 35 34 33 32 31 30 31 32
16 18 18 18 18 19 19 21 22 24 25 25 25 26 26 27 27 25 25 24 24 23 22 21 20 20 20 20 19 18 16 13 11 11 11 11 11 11 12 14 16 17 19 21 22 23 23 23 21 19 18 18 18 18 18 18 19 20 22 23 23 23 23 23 22 22 24 25 27 30 33 35 36 37 38 38 37 36 35 33 31 30 30 31 31
17 17 16 15 14 15 15 17 19 20 22 24 25 27 28 29 29 27 27 27 26 24 22 22 21 20 20 20 20 20 18 15 13 12 12 11 11 12 13 15 17 19 20 22 24 25 25 24 22 20 19 19 19 19 19 19 20 21 23 24 24 24 25 24 24 24 26 28 30 32 32 33 33 33 34 35 35 35 34 33 31 31 31 32 32
17 15 14 13 12 11 12 13 15 17 20 22 24 27 29 30 30 29 29 29 28 25 23 22 21 20 21 21 22 21 19 16 14 14 13 12 12 13 15 17 18 20 21 23 24 25 25 24 22 21 20 19 20 20 20 20 22 23 24 25 25 25 25 25 25 26 27 29 31 32 31 30 31 32 34 35 35 34 33 32 31 30 32 32 33
16 15 13 11 11 10 10 10 12 14 17 19 22 25 27 30 31 31 31 30 28 25 24 23 21 21 22 23 23 22 19 17 16 16 14 13 13 14 16 18 19 20 21 22 23 23 23 22 22 21 20 20 20 20 21 22 23 24 26 26 26 26 26 27 28 29 29 30 31 32 33 32 31 33 36 37 36 35 34 34 32 32 32 31 31
17 15 13 12 11 10 10 9 9 12 14 17 19 21 23 26 28 29 29 28 26 25 25 24 22 22 24 24 24 22 19 17 17 17 16 15 14 15 17 18 18 19 19 20 20 20 20 20 21 22 21 21 21 22 23 24 24 25 27 28 28 28 28 29 29 30 31 32 33 34 35 35 35 36 37 38 37 35 35 35 33 32 31 30 30
17 15 13 12 11 11 11 11 11 11 14 16 17 18 19 21 24 26 26 25 24 26 26 25 24 24 25 25 25 23 20 18 18 18 18 17 16 17 18 19 18 17 17 18 18 18 18 20 22 23 23 24 24 24 25 26 26 27 28 29 29 30 31 32 31 32 32 34 36 36 36 37 38 39 38 36 35 34 34 34 31 31 32 33 34
17 15 14 12 12 12 13 14 14 13 14 16 17 18 19 19 21 23 23 23 24 26 27 28 27 26 26 26 25 22 20 19 19 20 20 19 19 19 20 19 17 16 16 17 17 18 19 21 22 24 25 26 27 27 27 27 28 28 29 30 30 31 33 33 34 34 34 35 37 38 37 38 39 41 40 36 33 33 34 35 34 35 37 39 39
17 15 14 12 13 15 16 16 16 16 15 16 17 19 20 20 21 21 22 22 23 25 28 29 28 27 26 26 25 22 20 20 21 21 22 21 21 22 22 20 17 16 16 17 18 19 21 22 24 25 27 28 29 29 29 29 29 29 30 30 31 32 34 35 35 36 37 37 38 39 38 40 41 42 40 37 36 36 37 37 38 40 42 43 45
16 15 13 13 15 18 18 18 18 18 17 17 18 19 21 22 22 22 22 22 23 25 27 28 28 27 27 27 25 23 21 22 22 23 23 23 23 24 23 20 18 17 17 17 19 21 23 24 25 27 30 31 31 30 30 30 30 30 31 31 31 33 34 35 37 38 38 39 39 39 40 41 42 42 41 40 41 41 41 41 41 42 45 47 49
16 14 13 14 18 18 19 20 21 20 19 19 19 20 21 22 22 23 24 24 24 25 26 26 27 28 27 27 26 24 23 23 23 24 24 24 25 26 24 21 18 17 17 18 20 22 24 25 27 29 32 34 34 32 31 30 30 31 32 32 33 34 35 36 37 38 39 40 40 41 42 42 42 42 43 43 44 46 47 47 46 46 48 50 50
17 15 15 17 19 18 19 20 21 22 22 22 22 23 23 22 21 22 24 25 26 26 26 26 27 28 28 28 27 25 25 25 25 25 25 26 26 26 25 22 19 18 18 19 21 22 25 27 28 30 33 35 35 34 32 31 31 33 33 33 34 35 35 36 38 39 40 41 41 42 43 43 44 44 44 45 48 50 52 52 51 51 51 51 50
20 19 19 20 20 20 20 19 20 21 23 24 25 25 24 23 22 23 23 24 25 26 27 28 28 28 29 29 28 28 27 26 26 26 26 26 26 26 25 22 19 19 19 20 21 22 24 27 29 31 33 34 34 34 33 33 33 34 35 35 35 36 36 37 39 40 40 41 42 42 43 44 44 44 46 49 51 53 53 53 52 51 51 50 49
24 23 23 23 23 23 21 20 20 22 24 27 28 28 27 25 23 23 24 24 25 25 27 28 29 29 30 30 29 29 29 28 27 27 26 27 28 27 25 22 20 19 20 21 23 23 24 26 29 31 32 32 33 34 34 35 35 35 35 36 36 36 36 37 39 40 41 41 41 42 42 43 44 45 48 51 52 52 53 52 51 50 49 48 47
27 27 26 26 25 24 22 21 22 23 26 28 29 30 30 29 27 26 25 25 25 26 27 28 29 30 31 32 31 30 30 29 28 28 27 28 29 28 24 22 20 20 21 22 24 24 25 26 28 30 32 33 34 36 37 37 36 36 36 36 37 37 38 38 39 41 41 42 42 43 43 44 46 48 50 50 51 52 51 49 48 47 46 45 44
28 29 30 29 27 26 24 23 24 25 26 28 30 31 31 31 31 29 28 27 27 27 27 28 29 31 32 33 32 31 31 31 29 29 29 29 30 28 25 22 21 21 23 24 25 25 26 28 29 30 32 34 36 37 38 38 38 38 37 37 37 39 39 39 40 41 41 42 42 43 45 46 48 49 50 49 50 49 47 46 45 44 43 42 40
28 31 33 33 31 29 28 27 27 28 27 28 30 32 33 33 33 33 32 31 29 28 28 29 30 32 33 34 34 33 33 33 31 31 31 31 30 28 26 24 23 23 24 26 26 27 28 30 31 32 33 35 37 37 37 37 39 39 38 38 38 40 41 41 41 42 42 42 42 44 45 46 47 48 48 47 46 45 44 43 42 41 40 39 39
30 35 36 35 34 33 31 30 30 29 29 30 31 33 34 35 36 37 36 35 32 30 30 31 31 32 33 35 36 35 35 35 33 33 34 34 32 31 29 26 24 25 27 28 28 28 29 31 33 33 34 35 37 37 37 37 38 39 39 38 39 41 42 42 43 42 43 43 43 44 46 47 46 46 44 43 42 42 41 40 40 39 39 38 38
32 38 39 37 36 35 33 32 32 32 31 32 34 36 36 36 37 39 39 38 36 34 33 32 32 33 34 36 38 38 38 37 36 35 37 37 36 34 32 29 26 28 29 29 29 30 31 32 34 35 35 36 37 38 38 38 38 39 39 39 40 41 43 43 43 43 43 43 44 45 46 45 44 42 41 41 41 40 39 38 38 37 37 37 38
34 38 39 38 37 38 37 34 34 35 35 36 37 38 39 39 39 40 41 41 40 38 36 35 34 34 36 37 39 40 40 39 38 38 39 40 39 37 34 31 30 32 32 31 30 32 33 34 35 36 37 37 37 38 38 39 39 39 40 40 40 42 43 43 43 43 43 43 44 45 44 42 41 40 40 40 39 38 38 37 36 36 37 37 38
36 37 39 40 40 42 41 39 38 39 39 39 39 38 39 39 40 41 42 44 43 41 40 38 37 37 38 38 38 40 42 42 41 41 42 43 43 40 36 35 35 35 35 33 32 32 33 34 36 37 38 38 39 39 39 40 40 41 41 41 41 42 43 43 43 43 43 43 43 43 41 40 40 40 40 39 38 37 36 36 36 36 37 38 39
39 39 41 42 42 42 43 42 42 42 41 42 43 41 41 42 43 43 43 44 45 45 43 42 41 40 40 39 38 40 43 44 44 45 45 46 47 43 40 39 40 39 39 37 33 33 34 35 37 38 39 40 40 40 41 42 43 45 44 42 42 43 43 42 42 42 42 43 43 41 39 39 40 40 39 37 36 36 35 35 35 36 37 38 40
42 41 41 43 43 43 43 42 42 41 42 44 46 44 43 44 45 47 46 46 47 47 46 45 44 43 43 42 41 42 45 47 48 49 49 48 48 47 45 44 43 44 45 42 35 33 35 36 37 39 41 41 42 41 42 44 47 48 46 43 41 41 42 42 42 41 42 42 41 38 38 39 40 38 36 36 35 34 34 34 36 37 38 40 41
43 43 43 44 45 45 44 43 43 44 45 46 48 48 47 47 48 50 50 50 51 50 49 49 49 47 45 45 45 46 48 50 51 53 52 51 51 51 50 49 47 46 48 44 37 34 36 36 37 40 42 42 43 43 43 45 48 48 44 40 39 39 41 41 41 41 42 41 38 37 37 38 37 35 35 35 34 33 33 35 37 38 39 40 41
46 46 47 47 47 46 46 47 49 49 49 49 51 51 51 52 53 53 53 53 54 54 53 53 54 54 51 47 47 49 51 52 55 57 56 55 54 54 54 53 52 50 48 43 38 36 36 37 39 41 43 43 44 44 43 44 46 45 40 36 36 38 40 40 40 41 41 38 36 36 36 36 35 34 34 33 32 32 34 36 38 39 40 40 41
47 47 47 48 48 48 48 50 51 51 51 52 53 54 54 55 56 56 55 56 57 58 59 58 58 57 56 52 50 52 54 55 58 60 60 58 59 59 58 57 56 53 48 44 40 37 37 38 40 42 43 44 46 46 45 44 44 42 37 35 36 38 38 39 39 40 39 36 34 34 34 34 33 33 32 31 31 32 35 36 38 39 39 39 40
46 46 46 47 48 50 50 51 52 53 54 55 56 56 57 57 58 57 55 54 55 57 60 61 59 58 57 56 54 54 57 59 61 62 63 64 65 64 61 58 58 54 49 46 42 38 37 40 42 42 44 46 48 49 47 44 43 41 38 36 36 37 38 38 39 39 36 33 32 33 33 32 31 31 30 30 31 33 35 36 37 38 38 38 38
45 46 46 46 47 48 49 50 51 52 53 54 54 55 55 55 55 55 54 54 54 54 55 59 60 59 60 60 57 56 59 63 65 66 66 67 69 67 62 60 60 55 48 45 42 38 38 41 43 43 44 47 50 50 49 45 42 40 38 36 36 37 37 37 38 37 34 31 31 32 31 30 30 29 28 29 31 33 34 36 37 37 37 37 37
45 45 45 45 45 46 47 48 49 50 51 52 52 53 54 53 53 55 55 56 57 55 55 58 61 63 64 64 62 62 64 65 67 69 69 70 72 70 67 67 66 59 50 44 41 38 40 42 42 43 46 49 50 50 49 45 41 39 37 36 36 36 36 36 37 35 31 29 30 30 29 28 28 27 28 30 32 33 34 35 36 35 35 35 36
48 47 47 47 47 47 47 48 49 50 51 52 53 55 56 56 57 59 60 60 61 61 60 60 61 64 66 66 67 70 69 66 66 68 69 70 72 70 68 68 68 63 53 45 40 39 40 41 42 44 47 49 50 50 48 43 39 38 37 36 36 36 35 36 35 33 30 29 28 28 27 27 26 26 27 29 31 32 33 34 34 34 34 34 35
51 51 50 49 49 48 49 49 50 51 52 54 57 58 59 60 61 63 64 65 66 67 68 67 65 65 66 66 70 75 75 71 69 68 67 66 68 67 63 60 60 57 49 41 38 39 41 41 43 45 48 49 49 49 47 42 38 37 36 35 35 35 34 35 34 31 28 27 27 26 26 25 25 25 27 29 31 32 32 33 33 33 33 34 34
51 51 50 49 48 47 47 48 49 50 53 55 57 59 60 61 62 64 66 68 69 70 72 72 71 71 71 71 73 77 78 76 74 72 68 64 62 63 63 60 56 52 48 44 42 42 42 43 45 46 48 49 50 49 45 40 37 36 35 34 34 34 34 34 32 28 26 25 25 25 24 23 23 25 26 28 30 30 31 31 32 32 32 33 34
49 48 47 46 44 44 44 46 47 49 53 55 56 57 58 59 62 64 66 68 69 71 74 76 77 78 78 77 77 77 76 76 74 72 71 69 67 66 68 66 60 54 52 53 52 48 46 46 46 47 48 48 48 46 42 38 36 36 35 34 33 33 33 33 30 27 25 24 24 23 22 22 22 24 26 27 28 28 29 30 30 30 31 32 33
48 47 46 45 44 44 45 45 47 50 52 53 53 54 56 59 62 66 69 69 69 70 73 76 78 79 78 79 81 80 74 71 70 70 69 71 70 67 62 59 55 53 53 54 52 49 48 48 48 48 48 47 45 42 39 37 36 35 34 33 32 32 32 31 28 26 24 23 22 21 20 20 21 23 25 26 26 27 27 28 28 28 30 31 33
46 45 44 44 44 44 44 44 46 49 49 49 50 51 54 56 58 60 63 64 64 67 73 76 77 76 75 76 80 82 76 70 71 72 71 68 65 61 55 52 52 53 52 51 50 49 49 49 50 50 48 45 43 41 38 36 35 34 33 32 32 31 31 30 27 25 23 22 21 20 19 19 21 22 24 24 24 25 26 26 26 27 28 30 32
43 42 42 42 42 43 42 43 45 46 45 45 46 46 46 47 49 51 54 57 58 60 61 60 59 62 69 73 72 71 69 67 67 70 70 69 68 67 64 61 57 52 49 49 50 49 49 50 51 50 47 45 43 40 37 35 35 33 32 31 31 31 31 29 26 24 22 21 20 19 18 18 20 21 23 23 23 24 24 24 24 26 28 30 32
39 39 40 41 41 40 40 41 43 43 42 42 42 42 42 44 46 48 50 53 54 45 27 15 21 35 53 66 62 53 55 62 65 66 66 66 66 67 67 64 58 51 48 48 49 49 50 51 51 49 48 45 41 38 36 35 34 33 31 31 30 30 29 27 25 23 22 21 19 18 18 18 19 20 21 21 22 22 22 22 24 26 28 30 32
38 38 39 39 38 38 38 40 42 41 40 40 41 43 44 45 45 45 44 46 48 39 15 13 27 34 46 56 56 52 57 66 69 69 68 65 62 62 62 58 52 48 47 48 48 50 51 50 48 46 45 43 39 36 35 35 33 32 31 30 30 30 29 27 24 23 22 20 19 18 18 18 18 19 20 20 20 20 20 21 23 25 28 30 31
39 39 38 37 37 36 38 40 40 38 38 39 40 42 43 40 39 40 41 40 40 39 29 18 27 36 40 44 48 52 59 62 61 60 61 60 59 58 56 51 47 46 47 48 50 51 51 48 47 45 43 40 37 35 35 34 32 31 31 30 30 29 28 26 24 22 21 20 19 19 18 17 17 18 19 19 19 19 19 21 23 25 27 29 31
38 38 38 37 37 37 37 38 37 36 36 37 37 37 37 35 33 33 34 32 30 30 28 24 24 30 34 37 40 44 50 51 48 45 44 46 47 47 46 44 44 45 46 48 50 50 48 46 45 44 42 38 36 35 34 33 32 31 31 30 29 29 27 25 23 22 21 21 20 19 18 17 17 18 19 19 19 18 19 20 22 25 27 29 31
38 37 36 36 36 35 35 35 36 35 35 35 35 34 33 32 30 27 24 22 21 21 20 17 16 20 23 26 28 30 31 32 31 29 28 31 34 36 38 40 42 44 46 48 49 47 45 43 42 41 39 37 35 34 34 33 32 32 31 30 29 28 27 24 23 23 23 22 20 19 17 17 17 18 19 18 18 18 19 20 22 24 26 29 30
36 35 35 34 33 32 32 32 33 32 31 31 32 32 30 28 26 24 22 20 19 17 16 15 14 15 16 17 18 18 19 19 21 22 24 26 29 32 35 39 42 43 45 46 45 44 43 42 41 39 37 35 34 34 34 33 33 32 31 29 29 28 26 24 23 24 24 23 21 19 18 17 18 19 19 18 18 18 19 20 22 24 26 28 30
34 34 34 33 31 29 28 27 27 26 26 27 28 29 28 25 23 22 22 21 19 18 18 17 17 17 18 18 18 19 20 21 23 24 27 29 32 34 38 41 43 43 43 43 42 42 42 41 39 37 35 34 34 34 34 34 33 32 30 29 29 28 26 24 24 25 24 23 22 20 18 18 19 19 19 19 18 18 19 20 22 24 26 28 30
34 33 33 32 30 27 26 26 26 26 26 26 26 27 27 25 23 22 21 20 20 20 20 20 21 21 21 22 22 23 24 25 27 28 30 32 34 36 38 40 41 42 42 41 41 41 40 39 37 35 34 34 35 34 34 34 33 32 30 29 29 28 26 25 25 25 25 24 23 21 20 19 19 19 19 19 19 19 19 21 22 24 26 28 30
33 33 32 30 29 27 28 29 30 30 28 27 27 28 28 28 28 27 26 26 25 24 24 24 25 25 25 26 26 27 28 29 30 32 34 35 37 39 40 41 42 42 42 41 40 39 38 36 34 34 34 35 35 34 34 34 33 31 30 29 29 28 27 26 26 26 26 25 24 22 21 20 20 20 20 20 20 20 20 21 22 24 25 27 29
34 33 31 30 28 29 30 31 32 31 29 27 27 29 30 32 33 33 32 32 32 31 31 31 31 31 31 31 32 33 34 34 35 36 37 38 40 41 41 40 40 39 39 38 37 37 35 34 34 34 35 35 34 34 34 33 32 30 30 30 30 29 27 26 26 27 27 27 25 23 22 21 20 21 21 21 21 21 21 21 23 24 25 27 29
35 34 33 33 32 31 31 32 32 30 27 27 29 32 34 36 36 36 35 34 34 35 36 37 36 35 34 34 34 35 35 34 35 35 36 38 39 39 38 38 37 36 36 36 36 35 35 35 35 35 34 34 35 34 33 32 31 30 30 30 30 29 27 26 27 28 29 28 26 25 23 22 22 22 22 22 21 21 22 22 23 24 25 27 29
35 34 33 34 34 33 32 32 32 30 28 28 30 31 33 34 33 32 30 29 28 29 32 34 34 33 32 31 31 31 30 30 32 35 37 38 38 37 36 35 34 34 34 35 35 35 35 35 34 34 35 35 34 34 32 32 31 31 30 30 30 29 28 27 28 29 30 29 27 26 24 23 23 23 23 22 22 22 22 23 24 25 26 27 28
33 33 32 32 32 33 32 32 31 31 31 30 29 28 27 26 26 26 26 26 26 26 27 28 29 30 30 29 28 28 29 31 34 35 36 35 35 34 33 32 33 33 34 35 35 35 35 34 34 35 35 34 34 33 32 32 31 31 30 29 29 29 29 29 30 31 31 30 28 27 25 24 24 24 23 23 23 23 23 24 25 26 26 27 29
30 30 31 32 33 33 34 33 32 32 32 30 27 25 23 22 22 23 24 26 28 29 29 29 28 29 30 30 30 30 32 33 34 34 33 33 32 32 31 32 32 33 34 35 35 35 35 35 34 34 34 34 33 33 32 32 32 31 30 29 29 30 30 30 31 32 32 30 29 28 27 26 25 25 24 24 24 24 24 25 26 26 27 28 29
Wind_Direction
247 249 247 244 243 242 240 238 237 239 241 244 247 249 250 250 249 250 254 259 262 267 271 270 267 264 252 243 243 243 240 236 240 251 266 280 291 297 304 312 317 321 323 327 331 334 335 333 330 325 322 323 324 323 325 325 327 328 329 331 333 334 336 336 336 334 331 327 323 319 315 311 307 304 302 299 298 297 296 294 292 289 286 285 283
247 248 246 244 243 241 239 237 236 237 239 242 245 248 251 252 251 251 254 257 259 263 267 266 263 263 255 245 245 246 242 236 239 249 263 275 283 288 296 304 309 313 317 321 326 330 332 333 333 330 323 321 323 325 326 325 325 326 327 330 333 335 337 336 334 331 328 325 323 321 318 315 311 308 305 303 302 301 299 296 293 291 290 288 287
244 247 248 247 244 242 241 239 237 238 239 241 244 247 250 251 251 251 252 253 256 259 263 261 259 261 255 246 245 248 245 241 242 248 259 270 276 281 289 297 302 306 312 318 321 325 328 329 331 333 329 325 325 327 329 328 327 327 327 329 332 334 335 333 331 329 326 325 326 325 322 318 315 312 310 308 306 303 299 296 293 291 289 288 286
242 246 249 248 246 245 244 243 241 241 241 242 244 245 248 250 251 251 250 252 255 257 258 255 255 259 255 247 246 248 246 244 246 251 259 267 271 278 286 292 297 302 309 316 320 324 328 327 329 333 334 331 329 330 331 330 329 329 327 328 330 332 331 329 328 327 325 325 328 331 329 324 321 319 317 314 310 304 297 294 292 290 288 288 287
239 243 245 246 251 253 251 250 247 244 244 244 244 244 246 248 250 250 250 253 255 255 252 249 251 256 253 247 245 246 245 247 251 255 261 266 269 275 282 287 292 301 309 317 322 327 329 329 330 334 335 334 332 332 332 331 330 329 327 327 329 329 328 324 323 324 324 325 328 331 330 326 323 321 321 319 315 308 299 292 291 290 289 288 287
232 236 242 250 258 262 261 258 252 247 245 245 244 245 246 249 250 251 252 253 254 250 244 243 246 250 249 245 244 245 245 248 254 259 263 266 268 272 277 282 289 299 310 319 325 330 333 333 333 334 334 333 332 331 330 330 330 328 325 326 327 327 323 321 322 323 323 325 328 329 327 324 321 319 319 318 316 312 304 295 292 291 289 286 285
228 233 243 253 261 269 275 273 261 250 246 246 248 248 249 250 252 253 253 252 250 244 239 240 242 245 245 243 243 244 244 246 254 260 264 265 267 269 273 278 287 299 311 320 326 330 333 333 332 332 332 331 330 329 328 328 328 326 324 325 326 325 321 320 322 323 323 325 326 327 325 322 320 319 318 316 314 311 307 299 293 289 286 283 282
229 236 244 252 261 273 279 281 278 266 255 252 255 257 258 258 257 257 256 253 247 241 238 239 240 241 241 241 242 243 242 245 252 259 263 265 265 267 271 277 287 300 311 319 326 332 335 334 332 330 329 327 326 325 325 325 325 324 323 324 325 323 321 321 322 322 323 324 324 324 323 321 319 319 317 314 311 309 307 301 292 284 281 282 281
234 237 243 250 263 272 274 277 282 281 273 266 264 264 266 267 265 264 263 259 252 244 242 242 242 241 241 240 241 242 241 243 251 257 261 265 266 268 272 279 289 300 308 316 326 335 339 340 338 334 330 325 322 322 322 322 323 322 322 323 323 321 320 321 321 322 322 321 321 322 321 319 317 317 316 313 309 309 309 304 295 285 283 284 283
243 243 245 253 263 265 267 273 279 283 285 281 274 270 270 270 270 271 270 266 261 256 251 248 248 247 243 242 243 243 241 243 250 257 261 265 268 271 275 282 290 297 303 313 324 331 336 339 339 336 333 328 324 320 319 319 320 321 321 321 321 319 318 319 320 320 320 321 322 321 319 317 317 316 314 311 310 310 309 305 297 290 288 288 287
247 248 250 256 261 260 263 269 274 279 285 286 284 279 275 273 272 273 273 271 269 266 261 258 257 253 247 244 245 243 241 242 248 255 260 265 269 273 277 283 289 294 302 314 322 327 331 334 335 333 332 330 326 320 315 315 318 320 321 321 320 317 317 318 319 318 319 320 320 319 318 317 317 315 312 311 311 310 308 305 299 293 290 289 291
246 249 253 257 260 261 262 264 269 275 281 284 286 285 283 281 280 278 276 274 272 270 269 266 263 257 251 248 247 245 243 243 247 253 259 264 269 273 276 281 286 293 304 315 320 323 326 329 331 330 329 329 327 322 315 314 317 320 320 319 317 315 316 317 317 317 317 317 317 318 318 318 317 314 310 310 311 311 311 309 305 300 299 299 301
241 243 249 254 258 259 259 260 264 270 277 282 282 283 286 289 290 287 281 278 276 276 274 270 265 261 256 253 250 246 244 244 246 251 257 262 265 269 273 278 284 294 304 313 317 320 323 325 327 327 327 328 327 324 319 316 317 318 318 317 314 313 315 316 315 315 315 315 316 318 317 316 316 314 311 311 312 312 312 312 310 308 308 308 308
238 242 246 249 252 255 256 257 261 266 273 278 279 280 283 287 291 291 289 287 286 282 277 272 269 264 260 256 251 246 245 245 246 250 255 258 260 263 269 275 283 294 304 309 313 316 321 323 324 325 326 327 326 324 321 318 317 317 316 314 313 313 314 314 313 313 313 314 316 316 317 317 315 312 311 313 313 312 312 312 311 310 310 309 308
236 240 243 243 245 249 253 257 261 263 267 273 276 277 279 281 285 288 291 293 293 286 277 272 270 265 261 257 252 248 247 247 247 248 252 255 258 260 266 273 283 294 302 306 309 313 319 322 322 321 323 324 323 322 321 318 315 315 314 313 312 312 313 312 311 311 312 314 314 314 315 315 312 309 310 311 311 310 311 311 310 309 309 308 308
236 239 241 241 243 247 251 256 259 261 264 268 273 276 276 278 280 283 286 290 291 289 282 276 273 268 263 259 256 251 249 249 248 248 251 255 258 260 264 272 282 292 299 303 306 311 316 318 319 319 319 320 320 319 318 317 316 314 312 311 310 310 310 311 311 310 311 314 315 314 313 312 310 309 310 310 310 310 310 309 309 309 309 309 310
242 245 246 245 245 246 249 253 257 260 262 266 271 274 274 274 276 278 281 283 286 288 285 278 273 269 264 261 259 255 252 251 249 248 250 255 258 260 265 272 281 289 295 299 302 306 311 314 315 317 318 318 318 316 315 316 316 314 311 310 309 308 309 310 310 309 310 312 313 313 312 312 311 311 311 310 310 310 310 310 311 311 312 313 314
248 250 250 248 247 247 249 253 256 258 261 265 267 268 268 269 272 274 276 277 280 283 282 277 272 269 266 262 259 255 253 252 250 248 251 256 259 261 265 272 279 286 290 295 298 302 307 310 312 314 317 318 318 316 315 315 315 313 312 310 308 307 308 308 308 309 309 311 312 312 312 312 312 311 311 311 311 311 312 313 314 314 315 317 317
257 254 249 243 242 245 249 253 256 259 262 264 264 261 260 261 263 266 268 271 273 276 277 276 274 271 268 263 258 255 254 254 252 249 251 256 259 262 265 270 276 281 286 290 294 298 302 306 309 312 315 316 315 314 313 314 314 313 311 309 307 307 307 308 308 308 309 310 312 313 313 313 313 312 312 313 313 315 316 316 317 317 318 319 319
263 257 252 248 245 245 247 250 254 257 259 261 261 259 257 255 256 258 260 263 266 269 271 273 273 271 268 263 259 258 258 256 253 250 252 256 259 261 264 268 273 277 281 285 289 293 298 302 305 309 311 313 312 310 310 311 313 312 310 308 306 306 307 307 308 308 309 311 312 313 313 312 312 314 316 318 318 318 319 319 319 320 320 320 320
258 254 253 255 252 248 247 248 250 252 253 254 256 256 255 254 254 255 256 256 259 262 265 267 267 267 267 264 261 260 260 258 254 250 251 255 258 260 263 267 270 273 276 280 284 288 293 299 302 304 307 308 309 309 309 310 311 310 309 307 305 305 306 307 307 307 309 311 312 313 312 313 316 319 322 322 321 321 321 321 321 321 321 321 321
256 252 251 254 254 252 251 250 248 247 247 248 251 253 254 254 254 254 255 255 255 256 259 261 261 261 262 263 263 262 261 258 254 250 251 254 256 259 262 265 267 270 273 276 280 285 290 295 298 301 303 304 305 308 309 310 311 310 308 306 304 304 304 305 305 306 309 311 312 313 314 318 323 325 325 323 322 323 323 322 322 321 321 321 322
259 258 257 260 262 262 262 261 257 255 253 253 253 253 252 252 253 254 255 256 255 253 253 256 258 258 259 261 262 261 259 256 252 250 250 252 256 258 261 264 266 268 270 272 276 282 287 290 293 297 300 301 302 306 309 310 311 310 307 303 302 302 303 303 304 307 310 312 312 314 319 325 327 326 325 324 324 324 324 323 322 321 322 322 322
261 261 260 263 266 268 269 269 268 268 268 266 266 265 261 259 258 257 255 255 255 253 251 252 254 256 257 258 259 258 256 253 250 248 249 251 255 257 259 261 265 267 269 272 274 279 282 286 290 293 295 297 300 303 307 310 311 310 307 302 300 301 302 302 305 308 310 311 313 317 324 328 327 326 325 325 325 325 323 321 321 322 323 323 322
259 260 260 262 266 268 269 269 269 271 272 273 274 277 276 274 273 270 265 261 259 257 254 252 252 253 254 255 255 255 254 250 247 247 248 250 252 255 256 259 262 265 267 269 271 275 279 283 287 289 291 294 298 301 306 310 312 311 306 300 298 299 301 303 305 309 310 311 315 323 328 328 327 326 326 326 325 324 322 321 322 324 324 323 322
256 256 257 259 261 261 262 264 266 269 270 272 274 277 277 277 278 279 277 275 272 269 266 264 261 255 250 249 251 251 251 250 248 247 247 249 251 253 254 256 258 260 264 266 268 271 276 280 284 287 289 292 295 299 303 308 310 308 303 298 298 299 301 303 306 308 309 312 319 326 328 327 327 327 326 325 324 323 321 322 324 325 324 324 323
259 258 257 257 258 258 258 260 263 265 267 269 272 273 273 274 275 276 277 277 277 276 275 276 274 265 255 249 248 248 248 249 249 248 248 249 251 251 251 252 254 256 260 263 265 268 273 278 281 284 288 291 293 295 299 304 306 304 300 298 298 299 300 304 307 307 309 315 323 327 327 327 327 327 325 323 322 323 323 325 326 326 325 324 324
263 263 262 261 261 262 263 264 265 268 270 271 272 273 273 274 274 274 274 273 271 269 270 273 275 271 262 253 250 249 248 247 249 250 251 251 251 252 252 251 252 254 258 262 262 266 271 274 278 282 286 289 291 293 297 302 302 298 297 298 298 299 301 304 306 307 310 317 325 327 327 327 327 325 323 322 322 324 325 327 327 326 325 325 325
261 262 263 265 265 266 268 269 270 271 273 274 275 275 274 274 273 273 273 272 269 267 266 266 267 267 262 257 254 252 250 247 247 248 249 251 253 254 255 254 253 253 257 258 258 263 268 271 276 281 285 287 289 293 298 301 298 293 295 297 297 299 302 305 306 307 311 319 325 326 326 327 326 323 321 322 324 325 327 327 327 326 325 326 326
260 260 261 263 265 266 267 268 269 271 272 274 274 273 273 273 273 273 273 273 272 269 265 263 261 260 258 256 255 255 253 251 249 247 246 248 250 252 255 256 254 252 254 255 257 262 267 271 276 280 283 285 289 294 300 300 294 291 293 296 296 299 302 304 305 307 313 321 325 325 325 325 323 321 322 324 325 326 327 328 327 326 327 327 328
265 265 265 265 266 267 268 268 269 270 272 272 273 273 273 273 273 272 271 270 269 268 265 262 260 259 258 257 257 256 255 256 255 251 247 247 249 251 255 254 249 247 250 255 259 263 266 271 276 279 282 285 289 295 300 297 290 289 292 294 295 299 302 304 305 308 315 322 324 323 324 323 321 321 323 325 326 327 328 328 327 327 328 329 330
268 268 269 269 269 269 269 270 271 271 271 272 272 273 273 273 273 272 271 269 268 267 266 264 262 260 259 257 256 255 255 256 256 255 253 250 249 249 251 249 244 243 249 256 262 266 270 274 277 279 282 287 291 295 297 293 287 288 291 292 295 299 301 302 304 308 316 321 321 321 321 321 321 322 324 325 326 327 328 328 328 329 331 332 332
267 268 268 268 268 267 267 268 269 269 270 271 272 272 273 274 273 272 271 270 269 269 268 267 265 262 260 258 255 253 252 252 253 254 255 254 249 245 246 248 248 247 252 263 272 275 275 275 278 281 284 289 293 296 294 288 285 287 290 291 295 299 300 301 304 309 315 318 318 318 319 320 321 322 323 324 325 326 328 329 330 332 334 334 334
267 267 267 267 267 266 266 266 266 267 268 270 271 273 274 274 273 272 271 270 271 271 270 268 265 261 258 256 254 253 251 250 250 251 252 252 253 251 249 248 248 251 258 267 272 275 275 276 278 281 285 289 293 294 288 283 284 287 289 291 295 298 299 300 303 308 313 314 314 315 316 318 320 321 322 324 325 327 329 330 332 335 337 337 337
266 266 266 267 267 266 266 266 266 267 269 270 272 273 273 273 273 273 273 274 275 274 271 269 266 263 259 255 250 249 250 250 249 249 248 248 252 254 249 244 247 256 263 267 268 271 274 276 278 281 284 289 292 289 283 281 284 286 287 291 295 296 297 299 302 307 310 311 311 312 313 316 318 319 321 323 324 327 329 331 335 338 341 341 341
264 264 264 264 264 264 265 266 266 268 270 272 273 274 274 276 277 277 279 281 281 278 275 270 262 256 255 253 247 242 243 247 248 247 247 247 249 251 250 251 258 264 265 265 267 271 273 275 277 280 283 288 289 284 280 280 283 284 287 291 293 294 295 297 301 304 306 306 307 308 310 312 315 317 320 321 323 326 330 334 338 342 343 344 344
263 263 262 261 261 263 264 265 267 270 272 274 275 274 275 279 281 281 285 288 289 289 287 279 265 249 241 239 235 230 232 239 242 243 246 248 249 250 253 258 262 264 264 264 267 270 272 275 278 281 284 287 286 280 277 279 281 283 286 290 291 292 294 295 298 300 301 303 304 304 304 307 312 316 318 319 322 326 331 336 340 343 345 345 346
261 260 260 260 262 263 264 266 269 272 274 274 273 271 275 281 283 284 287 289 293 302 309 285 256 245 233 229 227 224 225 232 237 241 246 250 250 250 252 254 256 260 264 265 266 269 272 275 280 283 285 285 281 275 275 278 280 282 285 288 289 290 291 293 295 296 298 299 299 296 298 304 310 314 315 317 320 326 332 336 340 343 344 344 344
259 259 259 260 262 264 265 268 271 274 274 273 271 270 275 282 283 283 284 285 289 300 313 174 195 217 222 221 225 229 232 236 240 244 248 251 251 252 252 250 251 258 264 265 266 269 272 276 282 284 283 280 275 272 274 276 278 281 284 285 287 288 289 290 291 293 294 294 291 288 292 300 308 311 312 313 318 324 331 335 338 341 342 342 342
261 260 260 260 261 263 267 270 273 275 275 274 273 273 277 282 284 282 283 285 286 293 297 267 230 224 220 217 221 229 236 241 245 249 251 250 250 251 249 246 249 257 262 264 266 269 274 278 281 281 278 274 271 271 273 274 276 279 282 283 284 285 285 287 288 288 287 286 283 282 288 297 304 307 307 309 314 321 328 333 336 338 339 340 340
264 263 261 261 261 263 267 271 274 277 277 276 278 279 279 282 285 284 284 288 286 282 283 276 250 229 222 221 224 232 238 242 245 248 248 246 244 245 244 247 253 258 261 264 268 273 277 279 278 275 273 270 268 270 272 273 275 278 280 281 281 281 282 283 283 282 281 279 277 278 284 294 301 303 303 305 311 317 324 329 333 336 338 338 339
266 264 262 262 264 266 271 275 276 277 279 280 282 283 280 279 282 283 281 280 277 270 267 263 246 232 231 233 234 236 237 237 239 242 243 242 244 247 249 252 257 260 263 268 272 275 275 275 272 270 267 266 267 269 270 271 273 276 278 278 278 278 279 280 278 276 276 275 273 275 282 291 297 299 299 301 306 312 319 325 330 334 336 337 337
266 264 261 262 265 268 273 276 275 276 280 282 281 281 279 277 275 275 274 272 270 266 264 262 258 256 257 257 255 252 248 244 245 247 250 253 256 258 259 260 262 264 267 270 272 270 269 268 267 265 264 265 267 268 268 270 273 275 275 275 275 275 276 275 273 272 272 272 271 273 280 288 292 294 296 297 300 306 314 321 326 331 334 335 336
262 261 259 260 263 267 269 270 270 272 275 275 274 274 277 278 275 270 269 270 271 270 268 268 269 269 268 268 268 267 265 262 260 260 262 263 263 264 265 266 266 266 268 269 268 267 266 265 263 262 262 264 265 266 267 270 272 273 273 273 273 273 273 271 269 268 270 269 268 271 277 283 287 291 293 294 296 301 309 316 323 328 331 333 334
256 256 256 256 257 259 258 258 262 267 268 267 268 271 275 280 282 279 274 273 272 270 269 269 270 270 269 268 267 267 266 266 266 265 265 266 267 267 268 268 266 267 268 268 267 265 263 262 261 261 262 263 264 264 266 269 271 272 272 272 271 271 270 267 266 267 267 267 266 268 274 280 285 288 290 291 293 298 305 312 319 324 328 331 332
253 252 253 252 252 253 253 254 259 264 265 266 269 275 279 284 289 292 293 291 287 284 280 277 273 270 269 269 270 270 270 270 270 270 270 270 271 271 271 270 268 267 266 265 264 263 261 260 260 261 261 262 263 264 266 268 270 271 271 270 270 269 268 266 265 265 265 263 263 265 271 278 283 286 288 289 291 295 301 308 315 320 324 327 329
256 252 250 249 248 248 251 254 259 262 266 271 278 282 284 286 289 293 294 295 293 290 287 283 279 275 272 271 270 271 273 274 274 274 273 273 272 272 272 271 269 266 265 264 264 263 262 261 261 261 262 262 263 263 265 268 270 271 270 269 268 268 266 265 264 263 262 261 261 264 270 277 282 285 286 288 290 294 298 304 310 315 320 324 326
261 257 253 251 250 248 249 254 260 266 272 278 282 283 282 282 284 287 288 288 288 286 283 279 276 274 271 269 269 269 271 272 274 275 275 275 274 273 272 271 269 268 266 265 264 263 262 262 262 262 262 261 261 262 265 268 269 270 269 268 268 268 267 264 262 261 261 260 259 263 269 275 279 282 284 286 289 293 296 301 306 311 315 319 322
261 259 256 254 253 251 250 251 257 266 274 276 274 275 278 279 280 281 280 277 275 274 273 271 270 270 269 267 266 266 269 273 277 279 278 277 275 274 272 270 268 267 265 264 263 263 263 262 262 261 259 258 259 262 265 268 269 269 269 268 268 268 266 264 263 262 261 259 259 263 268 272 277 280 284 286 289 292 295 298 302 306 310 314 318
260 257 254 252 251 251 251 253 257 262 266 265 263 266 271 273 274 274 270 260 252 253 261 267 268 267 266 264 263 265 271 277 279 278 276 273 271 270 269 267 265 264 264 264 263 262 261 260 259 258 257 257 259 263 266 268 269 269 268 267 267 266 265 264 263 262 260 258 259 262 266 270 274 278 283 286 289 291 294 296 299 302 306 310 313
262 259 255 252 251 252 253 254 256 257 257 257 256 255 255 258 261 262 255 243 236 241 253 261 262 260 259 259 260 265 273 277 277 276 274 272 270 269 267 266 266 265 265 264 263 262 261 260 258 257 256 257 260 262 265 266 266 266 267 266 265 264 264 263 262 261 259 258 259 261 264 268 272 277 281 285 288 291 293 295 297 300 303 306 309
Height
5894 5895 5895 5895 5896 5897 5898 5898 5899 5900 5901 5902 5903 5905 5905 5906 5907 5908 5908 5909 5910 5910 5910 5911 5911 5911 5912 5912 5912 5912 5912 5912 5913 5913 5913 5913 5913 5913 5913 5912 5912 5911 5910 5909 5908 5907 5905 5903 5902 5901 5899 5898 5897 5896 5895 5894 5893 5892 5891 5890 5890 5889 5888 5888 5887 5886 5885 5884 5882 5880 5878 5876 5874 5872 5871 5869 5867 5866 5864 5863 5862 5860 5858 5857 5856
5891 5891 5892 5892 5893 5893 5894 5895 5896 5897 5898 5899 5901 5902 5902 5903 5904 5905 5906 5907 5907 5907 5908 5908 5909 5909 5910 5910 5910 5910 5911 5911 5911 5911 5911 5911 5911 5911 5911 5910 5910 5909 5909 5907 5906 5905 5903 5902 5900 5899 5898 5896 5895 5894 5893 5892 5891 5890 5889 5888 5888 5887 5886 5885 5884 5883 5882 5881 5879 5877 5875 5873 5871 5869 5867 5865 5863 5862 5861 5860 5859 5857 5856 5854 5853
5888 5888 5889 5890 5890 5890 5891 5891 5892 5894 5895 5896 5898 5899 5899 5900 5900 5902 5903 5903 5904 5905 5905 5906 5906 5907 5908 5908 5909 5909 5909 5909 5909 5909 5909 5909 5909 5909 5909 5908 5908 5907 5906 5905 5904 5903 5901 5900 5898 5897 5896 5894 5893 5892 5891 5890 5889 5888 5887 5886 5885 5884 5884 5882 5881 5880 5878 5877 5875 5873 5871 5869 5867 5864 5862 5861 5859 5858 5857 5856 5855 5854 5853 5851 5849
5885 5886 5887 5887 5887 5888 5888 5889 5890 5891 5892 5894 5895 5895 5896 5896 5897 5898 5899 5900 5901 5902 5902 5903 5904 5905 5906 5906 5907 5907 5907 5907 5907 5907 5908 5907 5907 5907 5906 5906 5905 5905 5904 5903 5902 5900 5899 5897 5896 5895 5893 5892 5890 5890 5889 5888 5886 5885 5884 5883 5882 5882 5881 5879 5878 5877 5875 5873 5871 5869 5867 5865 5863 5860 5858 5856 5855 5854 5853 5852 5851 5850 5848 5847 5845
5883 5884 5884 5885 5885 5886 5886 5887 5887 5889 5889 5890 5891 5892 5892 5892 5893 5894 5896 5896 5898 5898 5899 5900 5901 5903 5903 5904 5905 5905 5905 5906 5906 5906 5906 5905 5905 5905 5904 5904 5903 5902 5902 5901 5899 5898 5896 5895 5893 5892 5891 5889 5888 5887 5886 5885 5884 5883 5882 5881 5880 5879 5878 5876 5875 5873 5872 5870 5867 5865 5864 5862 5859 5857 5854 5853 5851 5849 5847 5846 5846 5845 5843 5842 5841
5881 5882 5882 5883 5884 5884 5884 5885 5885 5886 5887 5887 5888 5889 5889 5890 5890 5891 5892 5893 5894 5895 5896 5897 5899 5900 5900 5901 5902 5903 5904 5904 5904 5904 5904 5903 5903 5903 5902 5902 5901 5900 5900 5898 5897 5896 5894 5892 5891 5890 5889 5888 5886 5885 5884 5883 5882 5880 5879 5878 5877 5876 5875 5873 5871 5869 5868 5866 5864 5861 5860 5858 5856 5854 5851 5849 5846 5844 5842 5841 5841 5839 5838 5837 5836
5879 5879 5880 5881 5882 5882 5883 5883 5884 5884 5885 5885 5885 5886 5887 5887 5887 5888 5889 5890 5891 5892 5893 5894 5896 5897 5897 5898 5900 5901 5902 5902 5902 5902 5902 5901 5901 5901 5900 5900 5899 5898 5897 5896 5895 5893 5892 5890 5889 5888 5887 5885 5884 5883 5882 5881 5879 5878 5876 5875 5874 5873 5871 5869 5868 5866 5864 5861 5859 5857 5855 5854 5852 5850 5848 5845 5843 5841 5838 5837 5836 5834 5833 5832 5831
5876 5877 5878 5879 5880 5881 5881 5881 5882 5882 5883 5883 5884 5884 5885 5885 5885 5886 5886 5887 5888 5889 5890 5891 5892 5893 5895 5896 5897 5899 5899 5900 5900 5900 5900 5899 5899 5899 5898 5897 5897 5896 5895 5893 5892 5891 5890 5888 5887 5885 5884 5883 5882 5881 5879 5878 5877 5875 5874 5872 5871 5869 5867 5866 5864 5862 5860 5858 5855 5853 5851 5849 5847 5845 5843 5841 5839 5837 5835 5833 5832 5830 5828 5827 5825
5874 5875 5876 5877 5878 5879 5879 5879 5880 5880 5881 5882 5882 5882 5882 5883 5883 5883 5884 5886 5886 5887 5887 5888 5889 5890 5892 5893 5895 5896 5897 5897 5897 5897 5897 5897 5897 5896 5895 5895 5894 5893 5892 5891 5890 5888 5887 5886 5884 5883 5881 5880 5879 5878 5876 5875 5874 5872 5870 5869 5867 5865 5863 5862 5860 5858 5856 5854 5852 5849 5847 5845 5843 5840 5838 5837 5834 5832 5830 5829 5828 5826 5824 5822 5819
5871 5872 5874 5875 5876 5876 5877 5877 5878 5879 5879 5880 5880 5881 5881 5881 5881 5882 5883 5884 5884 5885 5885 5885 5887 5888 5889 5891 5892 5893 5894 5894 5894 5894 5893 5893 5893 5893 5892 5892 5891 5890 5889 5888 5887 5886 5884 5883 5882 5880 5878 5877 5875 5874 5872 5871 5870 5869 5867 5865 5864 5862 5860 5858 5856 5854 5852 5850 5848 5845 5843 5841 5838 5835 5833 5831 5829 5827 5825 5823 5822 5820 5818 5817 5815
5869 5870 5872 5873 5873 5874 5874 5875 5876 5877 5878 5878 5878 5879 5879 5879 5879 5880 5881 5881 5882 5882 5883 5884 5885 5885 5886 5887 5888 5890 5891 5891 5890 5890 5890 5890 5890 5889 5889 5889 5888 5887 5886 5885 5884 5882 5881 5880 5879 5877 5875 5874 5872 5871 5869 5868 5867 5865 5863 5862 5860 5858 5856 5854 5852 5849 5847 5845 5843 5841 5839 5836 5833 5831 5828 5826 5824 5822 5820 5818 5817 5815 5813 5812 5810
5867 5868 5869 5870 5870 5871 5872 5873 5874 5875 5876 5876 5876 5876 5876 5877 5878 5878 5878 5879 5879 5880 5881 5882 5882 5883 5883 5884 5885 5886 5887 5887 5887 5887 5886 5887 5886 5886 5886 5886 5885 5884 5883 5882 5881 5880 5879 5877 5876 5874 5872 5871 5869 5867 5866 5864 5863 5861 5860 5858 5856 5854 5852 5850 5848 5845 5843 5841 5839 5836 5833 5831 5829 5826 5824 5821 5819 5816 5814 5812 5810 5809 5806 5804 5801
5864 5865 5867 5867 5868 5869 5870 5871 5872 5873 5873 5874 5874 5874 5874 5875 5875 5876 5876 5876 5876 5877 5878 5879 5879 5880 5880 5881 5882 5883 5883 5883 5883 5883 5883 5883 5883 5883 5883 5883 5882 5881 5880 5879 5878 5877 5876 5874 5873 5872 5870 5868 5866 5864 5863 5861 5860 5858 5856 5854 5852 5850 5848 5846 5844 5841 5839 5836 5834 5831 5828 5826 5824 5821 5819 5816 5814 5811 5808 5806 5803 5801 5798 5794 5792
5861 5862 5863 5864 5865 5866 5867 5868 5869 5870 5871 5871 5871 5871 5872 5873 5873 5873 5873 5873 5873 5874 5875 5875 5876 5877 5878 5878 5879 5879 5879 5880 5880 5880 5880 5880 5880 5879 5880 5880 5879 5878 5878 5877 5876 5875 5873 5872 5870 5869 5867 5865 5863 5861 5860 5858 5857 5855 5853 5850 5848 5846 5844 5842 5840 5838 5835 5832 5829 5826 5824 5822 5819 5816 5813 5811 5809 5806 5803 5800 5797 5793 5790 5788 5785
5857 5859 5860 5861 5862 5863 5864 5865 5866 5867 5868 5868 5868 5868 5869 5870 5870 5870 5870 5871 5871 5871 5871 5872 5873 5873 5874 5875 5875 5876 5876 5876 5876 5877 5877 5877 5876 5876 5876 5877 5876 5875 5875 5874 5873 5872 5871 5869 5867 5865 5864 5863 5861 5859 5857 5855 5853 5851 5849 5846 5844 5842 5840 5839 5836 5834 5831 5828 5825 5822 5820 5818 5815 5812 5810 5807 5805 5802 5798 5795 5791 5788 5785 5782 5779
5854 5855 5856 5857 5859 5860 5861 5862 5863 5864 5864 5864 5865 5865 5866 5867 5867 5867 5867 5868 5868 5868 5868 5868 5869 5870 5870 5871 5872 5872 5873 5873 5873 5873 5873 5873 5872 5872 5873 5873 5873 5872 5871 5871 5870 5869 5867 5866 5864 5862 5860 5859 5857 5855 5853 5851 5849 5847 5845 5842 5840 5838 5836 5835 5833 5830 5827 5824 5821 5817 5815 5814 5811 5808 5806 5803 5800 5797 5793 5790 5786 5783 5780 5777 5773
5851 5852 5853 5854 5855 5857 5858 5859 5859 5860 5861 5861 5862 5862 5863 5863 5863 5864 5864 5865 5865 5865 5865 5865 5865 5866 5866 5867 5868 5869 5869 5869 5869 5870 5869 5869 5868 5868 5869 5869 5869 5869 5868 5867 5866 5865 5864 5862 5860 5859 5857 5855 5853 5851 5849 5847 5845 5843 5841 5838 5836 5834 5832 5830 5829 5826 5823 5820 5817 5814 5812 5810 5807 5803 5801 5798 5795 5791 5787 5784 5780 5777 5774 5771 5768
5847 5848 5849 5850 5852 5853 5854 5855 5855 5855 5856 5857 5858 5859 5859 5859 5860 5860 5860 5861 5861 5862 5862 5861 5861 5861 5862 5863 5864 5865 5865 5865 5865 5866 5865 5864 5864 5864 5865 5865 5865 5865 5864 5863 5863 5862 5860 5858 5856 5855 5853 5851 5849 5847 5845 5843 5841 5839 5837 5834 5832 5830 5828 5826 5824 5822 5819 5817 5814 5811 5808 5805 5802 5799 5796 5793 5789 5785 5782 5779 5775 5772 5768 5765 5762
5844 5844 5845 5845 5846 5848 5850 5850 5850 5851 5852 5853 5854 5854 5855 5855 5855 5855 5855 5856 5857 5858 5858 5857 5857 5857 5858 5858 5859 5860 5860 5860 5861 5861 5861 5860 5860 5860 5860 5861 5861 5861 5860 5860 5859 5857 5856 5854 5853 5851 5849 5847 5845 5843 5841 5839 5837 5834 5832 5831 5828 5826 5824 5821 5819 5817 5815 5812 5809 5806 5803 5800 5797 5794 5791 5787 5783 5780 5777 5774 5770 5767 5764 5761 5758
5840 5839 5839 5839 5840 5842 5844 5845 5846 5847 5848 5848 5848 5849 5849 5850 5850 5850 5850 5851 5852 5853 5853 5853 5853 5853 5853 5854 5854 5854 5855 5856 5857 5857 5856 5855 5855 5855 5855 5856 5857 5857 5856 5856 5855 5853 5852 5850 5849 5847 5846 5844 5842 5840 5837 5835 5833 5830 5828 5826 5824 5822 5819 5817 5815 5812 5810 5807 5804 5801 5798 5795 5792 5788 5785 5782 5778 5775 5772 5769 5766 5763 5760 5757 5753
5834 5834 5833 5834 5835 5837 5838 5840 5841 5842 5843 5843 5843 5843 5844 5844 5844 5844 5844 5845 5846 5847 5847 5848 5849 5849 5849 5848 5849 5849 5850 5851 5852 5851 5851 5850 5849 5849 5850 5852 5852 5852 5852 5851 5850 5849 5847 5846 5845 5844 5842 5840 5838 5836 5834 5831 5828 5826 5824 5822 5820 5817 5815 5813 5811 5808 5805 5802 5799 5796 5794 5791 5787 5783 5779 5776 5773 5770 5767 5764 5762 5759 5756 5753 5749
5828 5828 5829 5829 5830 5832 5833 5834 5836 5836 5837 5837 5837 5837 5838 5838 5838 5839 5838 5839 5839 5841 5841 5842 5843 5843 5843 5843 5844 5844 5844 5845 5845 5845 5845 5844 5844 5844 5846 5847 5846 5846 5847 5847 5846 5844 5843 5842 5841 5839 5838 5836 5834 5832 5829 5827 5824 5822 5820 5818 5815 5813 5811 5809 5807 5804 5801 5798 5795 5793 5789 5785 5781 5777 5774 5771 5769 5766 5763 5760 5758 5755 5752 5749 5745
5823 5824 5824 5825 5826 5828 5829 5830 5831 5831 5832 5831 5831 5832 5832 5831 5832 5833 5833 5833 5833 5834 5835 5836 5836 5837 5837 5838 5839 5839 5838 5839 5839 5839 5838 5838 5838 5839 5841 5841 5841 5841 5842 5841 5840 5839 5838 5837 5836 5834 5833 5831 5829 5827 5825 5822 5819 5817 5815 5812 5810 5808 5806 5804 5802 5799 5797 5794 5791 5788 5784 5780 5776 5773 5770 5767 5765 5762 5759 5757 5754 5751 5748 5745 5741
5817 5819 5820 5821 5822 5823 5824 5824 5825 5826 5826 5825 5825 5826 5827 5827 5827 5827 5827 5827 5827 5828 5829 5829 5830 5831 5831 5832 5833 5833 5832 5832 5832 5831 5832 5832 5833 5833 5835 5835 5835 5836 5836 5836 5835 5834 5833 5832 5831 5829 5828 5827 5824 5822 5820 5817 5814 5811 5809 5807 5805 5804 5802 5799 5797 5794 5792 5789 5786 5782 5778 5774 5771 5769 5766 5763 5761 5758 5756 5753 5751 5748 5745 5741 5737
5812 5814 5815 5816 5817 5817 5818 5818 5819 5820 5820 5820 5820 5821 5822 5822 5822 5821 5821 5821 5821 5822 5823 5823 5823 5824 5825 5826 5827 5826 5826 5826 5826 5825 5825 5826 5826 5827 5828 5829 5830 5830 5830 5830 5829 5828 5827 5826 5825 5824 5823 5821 5819 5817 5815 5812 5809 5806 5804 5802 5800 5799 5797 5794 5792 5789 5787 5784 5780 5776 5772 5770 5767 5765 5762 5759 5757 5755 5752 5750 5747 5744 5741 5737 5733
5808 5809 5810 5811 5811 5812 5812 5812 5813 5814 5815 5815 5815 5816 5816 5816 5816 5816 5815 5815 5815 5816 5817 5818 5818 5817 5817 5818 5819 5820 5820 5820 5820 5819 5818 5819 5820 5820 5821 5822 5822 5823 5823 5823 5823 5823 5822 5821 5819 5818 5817 5815 5814 5812 5810 5807 5804 5801 5799 5797 5796 5794 5792 5790 5787 5785 5782 5779 5775 5771 5768 5766 5763 5761 5758 5756 5754 5752 5749 5746 5743 5739 5736 5732 5729
5801 5803 5804 5804 5805 5805 5806 5806 5807 5807 5808 5808 5809 5809 5809 5809 5809 5809 5809 5809 5809 5809 5808 5809 5810 5810 5810 5811 5811 5812 5812 5813 5812 5812 5812 5813 5812 5812 5812 5813 5813 5814 5816 5817 5817 5817 5816 5815 5813 5812 5811 5810 5808 5806 5805 5802 5800 5798 5795 5793 5792 5790 5787 5785 5783 5780 5777 5774 5770 5766 5764 5761 5759 5757 5754 5753 5751 5748 5746 5742 5738 5735 5732 5728 5725
5794 5795 5796 5797 5798 5798 5799 5800 5800 5801 5801 5801 5801 5801 5801 5801 5801 5801 5803 5803 5803 5803 5802 5801 5801 5802 5803 5803 5804 5804 5804 5804 5804 5805 5805 5805 5804 5804 5805 5805 5805 5807 5809 5811 5811 5811 5810 5808 5807 5806 5805 5804 5802 5800 5799 5798 5795 5793 5792 5789 5787 5785 5783 5780 5778 5775 5773 5769 5765 5762 5760 5757 5755 5753 5752 5749 5747 5745 5742 5738 5735 5732 5729 5725 5721
5787 5788 5789 5790 5791 5792 5792 5793 5793 5793 5794 5794 5794 5794 5794 5794 5794 5794 5795 5795 5794 5795 5795 5793 5792 5793 5792 5793 5795 5797 5795 5794 5794 5794 5795 5795 5796 5798 5801 5800 5799 5801 5803 5804 5804 5804 5803 5801 5800 5799 5798 5797 5796 5794 5793 5792 5790 5788 5787 5785 5782 5780 5778 5775 5773 5771 5768 5764 5761 5758 5756 5753 5752 5750 5749 5746 5744 5741 5738 5735 5732 5729 5726 5722 5719
5781 5782 5783 5784 5784 5785 5786 5786 5786 5786 5786 5786 5787 5786 5787 5787 5787 5787 5786 5786 5785 5785 5785 5783 5782 5782 5781 5783 5787 5787 5785 5784 5783 5783 5783 5785 5786 5789 5792 5793 5792 5794 5796 5798 5797 5797 5796 5795 5794 5793 5792 5791 5790 5789 5788 5786 5785 5783 5782 5780 5777 5775 5773 5771 5769 5766 5763 5759 5756 5754 5752 5750 5749 5747 5745 5743 5740 5738 5735 5732 5729 5726 5723 5719 5716
5774 5775 5776 5777 5778 5778 5779 5779 5779 5779 5779 5779 5779 5779 5779 5779 5779 5777 5775 5774 5774 5773 5772 5772 5773 5772 5772 5775 5777 5775 5774 5776 5778 5776 5775 5775 5777 5780 5782 5782 5783 5786 5789 5791 5791 5790 5789 5788 5787 5786 5786 5785 5784 5784 5783 5781 5779 5778 5776 5774 5772 5770 5768 5766 5764 5762 5758 5755 5753 5751 5748 5747 5745 5744 5742 5740 5737 5734 5732 5729 5727 5724 5720 5717 5713
5767 5768 5769 5770 5771 5771 5772 5772 5772 5772 5772 5772 5771 5770 5770 5770 5768 5766 5764 5762 5762 5761 5760 5761 5762 5763 5764 5766 5766 5762 5763 5767 5768 5768 5769 5770 5770 5771 5773 5773 5775 5779 5781 5783 5784 5783 5782 5781 5780 5780 5780 5779 5778 5778 5777 5775 5774 5773 5771 5769 5767 5766 5764 5762 5760 5757 5753 5751 5749 5747 5745 5743 5742 5740 5738 5736 5734 5731 5729 5727 5724 5721 5717 5713 5710
5761 5762 5762 5763 5764 5765 5766 5766 5766 5765 5765 5764 5763 5762 5761 5759 5756 5754 5752 5750 5749 5748 5748 5749 5751 5751 5751 5752 5752 5750 5751 5755 5757 5759 5763 5764 5763 5763 5765 5768 5771 5773 5775 5776 5777 5777 5776 5775 5775 5774 5774 5773 5772 5772 5771 5770 5769 5767 5766 5764 5762 5761 5759 5757 5755 5752 5749 5747 5745 5743 5741 5740 5738 5737 5735 5733 5731 5729 5726 5724 5721 5718 5714 5710 5707
5753 5754 5755 5756 5757 5758 5759 5759 5758 5758 5757 5755 5754 5754 5751 5748 5745 5741 5738 5737 5738 5737 5735 5734 5735 5735 5735 5738 5740 5740 5739 5743 5748 5752 5755 5756 5755 5754 5757 5761 5765 5767 5769 5770 5770 5770 5770 5769 5769 5769 5768 5768 5767 5765 5765 5764 5763 5762 5760 5759 5758 5756 5755 5753 5750 5748 5745 5744 5742 5739 5738 5736 5735 5734 5732 5731 5729 5726 5724 5721 5718 5715 5711 5708 5705
5747 5748 5749 5750 5750 5750 5751 5751 5750 5750 5748 5747 5747 5745 5742 5739 5735 5731 5727 5727 5727 5723 5719 5717 5716 5717 5719 5722 5726 5729 5731 5734 5738 5742 5743 5745 5748 5749 5750 5754 5759 5761 5763 5764 5764 5765 5764 5764 5763 5762 5762 5762 5761 5760 5759 5759 5758 5756 5755 5754 5753 5752 5750 5748 5746 5743 5742 5740 5738 5736 5734 5733 5732 5731 5729 5728 5726 5724 5721 5719 5715 5712 5709 5706 5703
5740 5741 5742 5743 5743 5743 5743 5743 5743 5742 5741 5740 5739 5737 5734 5730 5727 5723 5719 5716 5712 5707 5702 5699 5699 5703 5709 5708 5702 5707 5720 5727 5727 5728 5732 5736 5741 5745 5747 5750 5754 5755 5756 5758 5759 5759 5758 5757 5756 5756 5756 5755 5755 5754 5754 5753 5752 5751 5750 5749 5748 5747 5745 5744 5741 5739 5738 5736 5734 5732 5731 5730 5729 5728 5726 5725 5723 5721 5718 5716 5713 5710 5707 5704 5701
5733 5734 5735 5735 5736 5736 5736 5736 5735 5734 5734 5733 5732 5730 5727 5723 5720 5717 5712 5707 5702 5692 5677 5664 5664 5676 5692 5695 5687 5688 5703 5715 5716 5717 5723 5729 5735 5740 5743 5746 5748 5749 5751 5752 5752 5752 5751 5750 5750 5750 5750 5749 5749 5749 5748 5747 5746 5746 5745 5744 5743 5742 5741 5739 5737 5735 5734 5732 5730 5729 5728 5727 5726 5725 5723 5722 5720 5718 5716 5713 5710 5707 5705 5702 5699
5727 5728 5729 5729 5729 5729 5729 5729 5729 5728 5727 5727 5725 5723 5720 5716 5714 5712 5708 5703 5697 5686 5666 5652 5650 5661 5677 5690 5690 5687 5691 5701 5707 5712 5717 5724 5729 5734 5737 5740 5743 5744 5744 5745 5745 5745 5745 5745 5744 5744 5744 5743 5743 5742 5742 5742 5741 5741 5740 5739 5739 5738 5737 5735 5733 5731 5730 5729 5727 5726 5725 5724 5723 5721 5720 5719 5717 5715 5713 5710 5707 5705 5702 5699 5697
5721 5722 5722 5722 5723 5723 5722 5722 5722 5721 5721 5721 5720 5718 5715 5711 5708 5706 5705 5701 5695 5688 5681 5676 5675 5676 5680 5687 5690 5686 5686 5694 5704 5710 5715 5720 5725 5728 5730 5734 5736 5737 5738 5738 5738 5739 5739 5739 5739 5738 5737 5736 5736 5736 5736 5736 5736 5736 5735 5735 5734 5733 5732 5730 5729 5727 5726 5725 5724 5723 5722 5720 5719 5718 5717 5716 5714 5712 5710 5707 5704 5702 5699 5697 5695
5715 5715 5716 5716 5716 5716 5715 5715 5715 5715 5715 5715 5714 5712 5709 5707 5703 5700 5699 5698 5692 5688 5688 5689 5688 5686 5686 5687 5686 5686 5690 5698 5705 5709 5711 5715 5719 5721 5724 5727 5729 5730 5731 5732 5732 5733 5733 5733 5732 5732 5731 5731 5731 5731 5731 5731 5731 5731 5730 5730 5729 5729 5727 5726 5724 5723 5722 5721 5721 5720 5718 5717 5715 5715 5714 5713 5711 5709 5707 5704 5701 5698 5696 5694 5692
5708 5709 5710 5710 5709 5709 5709 5708 5708 5709 5708 5708 5708 5706 5703 5702 5701 5697 5695 5694 5691 5689 5689 5690 5689 5688 5689 5689 5689 5691 5695 5699 5702 5704 5706 5709 5712 5715 5718 5720 5722 5724 5725 5725 5726 5726 5727 5726 5726 5725 5725 5725 5725 5725 5725 5726 5725 5725 5725 5725 5725 5724 5723 5721 5720 5719 5718 5718 5717 5716 5715 5713 5712 5711 5710 5709 5708 5706 5703 5701 5698 5695 5693 5692 5690
5702 5702 5703 5703 5702 5702 5702 5702 5702 5702 5702 5701 5701 5700 5698 5698 5698 5695 5692 5691 5691 5689 5689 5690 5690 5689 5690 5690 5691 5692 5694 5696 5698 5701 5703 5705 5708 5711 5713 5715 5716 5717 5718 5719 5720 5720 5720 5720 5719 5719 5719 5719 5720 5720 5720 5720 5720 5721 5721 5721 5720 5719 5718 5717 5715 5714 5714 5714 5714 5713 5711 5709 5708 5708 5707 5706 5704 5702 5700 5697 5694 5692 5690 5689 5687
5695 5696 5696 5696 5696 5696 5696 5696 5695 5696 5696 5695 5694 5694 5694 5693 5693 5692 5690 5689 5689 5689 5688 5689 5689 5689 5690 5690 5690 5691 5692 5694 5696 5698 5700 5702 5704 5706 5708 5709 5711 5712 5713 5714 5714 5713 5713 5713 5713 5713 5713 5714 5715 5715 5715 5715 5716 5716 5716 5716 5715 5714 5713 5712 5711 5710 5710 5710 5710 5708 5707 5705 5704 5704 5703 5702 5700 5698 5696 5694 5691 5689 5687 5686 5685
5689 5689 5690 5690 5690 5690 5689 5690 5690 5690 5691 5691 5690 5689 5688 5689 5688 5688 5687 5686 5686 5686 5686 5687 5687 5687 5688 5688 5689 5689 5690 5692 5693 5695 5697 5698 5700 5701 5703 5704 5705 5706 5707 5707 5707 5707 5706 5706 5706 5707 5708 5709 5709 5710 5710 5710 5711 5711 5711 5711 5710 5709 5708 5707 5706 5706 5706 5706 5705 5704 5703 5701 5701 5700 5699 5698 5696 5694 5692 5690 5688 5686 5685 5683 5682
5682 5683 5684 5684 5684 5684 5683 5684 5685 5686 5686 5686 5685 5684 5683 5682 5683 5683 5684 5683 5683 5684 5684 5684 5684 5684 5684 5685 5685 5686 5687 5688 5689 5691 5692 5693 5695 5696 5697 5698 5699 5699 5700 5700 5700 5699 5699 5700 5701 5702 5703 5703 5704 5704 5705 5705 5706 5706 5706 5706 5705 5705 5704 5702 5702 5702 5702 5701 5701 5700 5698 5697 5697 5696 5695 5694 5692 5690 5688 5686 5684 5683 5682 5680 5679
5676 5677 5678 5677 5678 5678 5678 5679 5680 5681 5681 5680 5680 5679 5677 5676 5676 5677 5677 5678 5679 5679 5679 5679 5679 5679 5679 5680 5680 5681 5682 5683 5684 5685 5687 5688 5689 5690 5690 5691 5692 5692 5693 5693 5693 5693 5693 5694 5696 5697 5698 5698 5699 5699 5700 5700 5701 5701 5701 5701 5700 5700 5699 5698 5697 5698 5698 5697 5696 5695 5694 5693 5692 5692 5691 5690 5688 5686 5684 5683 5681 5680 5679 5677 5677
5671 5671 5672 5671 5672 5672 5673 5674 5675 5675 5675 5675 5675 5674 5672 5671 5671 5671 5671 5671 5671 5671 5671 5671 5672 5672 5673 5673 5674 5675 5676 5677 5678 5679 5680 5681 5682 5683 5683 5684 5685 5685 5685 5686 5686 5687 5688 5689 5691 5692 5693 5693 5694 5694 5695 5695 5696 5696 5696 5696 5695 5694 5694 5693 5693 5693 5693 5693 5692 5691 5690 5689 5688 5688 5687 5685 5684 5682 5681 5679 5678 5677 5675 5674 5674
5665 5665 5665 5666 5666 5667 5667 5668 5669 5670 5671 5671 5670 5668 5667 5667 5667 5667 5667 5667 5666 5664 5663 5663 5663 5664 5665 5667 5668 5669 5670 5672 5673 5674 5674 5675 5676 5677 5677 5677 5678 5679 5680 5680 5681 5682 5683 5685 5686 5687 5688 5688 5689 5689 5690 5690 5690 5691 5691 5691 5690 5689 5689 5688 5688 5689 5689 5688 5688 5687 5686 5685 5684 5684 5683 5681 5680 5678 5677 5675 5674 5673 5672 5671 5671
5660 5660 5660 5660 5661 5662 5663 5663 5664 5666 5667 5666 5665 5664 5663 5663 5663 5664 5664 5664 5662 5660 5658 5657 5657 5658 5659 5661 5662 5664 5665 5667 5668 5669 5669 5670 5670 5671 5671 5672 5673 5674 5674 5675 5677 5678 5679 5680 5681 5682 5682 5683 5684 5684 5684 5685 5685 5685 5686 5686 5685 5684 5683 5683 5684 5684 5684 5684 5683 5683 5682 5681 5680 5680 5678 5677 5675 5674 5673 5672 5671 5670 5669 5668 5668
5654 5655 5655 5656 5656 5657 5658 5658 5660 5661 5661 5661 5660 5660 5660 5659 5659 5660 5661 5660 5659 5657 5655 5655 5655 5655 5656 5657 5658 5659 5661 5662 5663 5663 5664 5665 5665 5666 5667 5667 5668 5669 5669 5670 5671 5672 5673 5674 5675 5676 5677 5678 5678 5678 5679 5679 5680 5680 5681 5681 5680 5679 5678 5679 5679 5679 5679 5679 5679 5678 5677 5677 5676 5675 5674 5673 5671 5670 5669 5668 5667 5667 5666 5665 5665
5649 5649 5650 5650 5651 5651 5652 5654 5655 5656 5656 5656 5656 5656 5655 5654 5654 5655 5656 5656 5655 5654 5653 5653 5653 5653 5653 5654 5654 5655 5656 5657 5658 5658 5659 5660 5661 5661 5662 5662 5663 5664 5664 5665 5666 5667 5668 5669 5670 5670 5671 5672 5672 5673 5673 5674 5674 5675 5675 5675 5674 5673 5673 5673 5674 5675 5675 5675 5674 5674 5673 5672 5672 5671 5670 5669 5667 5666 5665 5664 5664 5663 5662 5662 5661